Location: Madingley
(52.2167°N, 0.0500°E)
Time: 08:32:30
(UTC+00:00)

Daily predictions for brighter satellites

Satellite Brightness Start Highest point End
(mag) Time Altitude Azimuth Time Altitude Azimuth Time Altitude Azimuth
DNEPR-1 R/B 4.5 20:22:35 10° NW 20:27:50 68° NE 20:34:17 10° SE
ADEOS 3.9 20:27:41 10° S 20:32:53 72° WSW 20:38:07 10° NNW
Cosmos 1805 4.4 20:31:05 10° NNE 20:33:42 21° ENE 20:36:16 10° ESE
Cosmos 1725 Rocket 4.3 20:29:31 10° SSW 20:35:46 78° W 20:42:02 10° N
NOSS 3-3 (C) 3.8 20:31:16 10° SSW 20:36:26 59° SE 20:42:39 10° NE
Cosmos 2322 Rocket 2.6 20:34:31 10° NNW 20:40:06 55° NE 20:45:39 10° SE
Cosmos 1602 Rocket 4.0 20:40:19 10° N 20:44:29 45° ENE 20:48:40 10° SSE
USA 306 2.0 20:41:25 10° W 20:44:35 63° NNW 20:46:41 10° ENE
Tsikada Rocket 4.2 20:38:42 10° NNW 20:44:52 75° W 20:51:00 10° S
Cosmos 2082 Rocket 2.4 20:40:35 10° SSW 20:46:19 81° WNW 20:52:04 10° NNE
NOSS 3-4 (A) 3.9 20:40:50 10° NW 20:47:22 81° NE 20:55:05 10° SE
NOSS 3-4 (C) 3.9 20:41:28 10° NW 20:48:01 80° NE 20:55:45 10° SE
Cosmos 2016 Rocket 4.4 20:43:26 10° SSW 20:49:39 68° WNW 20:55:49 10° N
YAOGAN 11 4.2 20:47:24 10° NNE 20:51:49 61° ESE 20:56:14 10° S
CZ-4B R/B 2.9 20:49:58 11° SE 20:53:09 48° ENE 20:56:33 10° N
Cosmos 2151 2.9 20:50:42 10° N 20:54:49 77° ENE 20:58:54 10° SSE
Cosmos 44 4.5 20:51:59 10° NW 20:57:09 42° NE 21:02:12 10° ESE
Cosmos 2237 Rocket 4.5 20:53:48 10° NNW 20:57:19 16° NNE 21:00:49 10° ENE
Cosmos 2098 Rocket 3.9 20:53:34 10° SSE 20:57:43 32° E 21:01:23 10° NNE
ATLAS 2AS CENTAUR R/B 4.3 20:51:34 10° W 20:57:52 37° NNW 21:04:06 10° NE
CZ-4C R/B 3.4 20:54:48 10° W 20:59:15 44° NNW 21:05:01 10° NE
Cosmos 1626 Rocket 3.8 20:56:16 10° NNW 21:00:38 71° W 21:04:59 10° S
Cosmos 1782 4.3 20:59:56 10° SW 21:03:10 34° WNW 21:06:26 10° N
Ariane Rocket 3.2 20:59:02 11° SSE 21:03:48 60° ENE 21:08:48 10° N
Cosmos 2278 3.8 21:01:36 10° NNW 21:07:21 81° WSW 21:12:37 12° SSE
Spot 2 Rocket 4.1 21:04:18 10° S 21:09:12 54° W 21:14:10 10° NNW
SL-16 R/B 2.6 21:05:45 10° NW 21:11:21 62° WSW 21:16:43 11° SSE
COSMOS 2428 4.2 21:06:54 10° NNW 21:11:45 28° NE 21:16:35 10° E
Meteor 1-5 Rocket 4.4 21:06:40 10° N 21:12:24 66° ENE 21:17:38 13° SSE
SPOT 3 Rocket 3.5 21:09:24 11° SSE 21:14:25 89° ENE 21:19:35 10° NNW
Cosmos 1763 Rocket 4.5 21:10:53 12° SSE 21:14:52 29° E 21:19:21 10° NE
USA 186 2.8 21:13:19 10° SSW 21:15:51 33° W 21:18:24 10° NNW
USA 290 3.2 21:18:07 18° SSE 21:19:44 27° ESE 21:22:29 10° NE
CZ-4 R/B 4.3 21:19:57 10° W 21:20:14 10° W 21:20:32 10° W
Cosmos 1606 Rocket 4.1 21:17:15 14° SSE 21:20:36 41° E 21:24:39 10° NNE
Cosmos 990 Rocket 4.3 21:16:53 10° NNW 21:21:58 55° ENE 21:26:04 16° SE
Cosmos 1513 Rocket 4.5 21:16:23 10° S 21:22:34 76° E 21:28:42 10° NNE
Cosmos 1933 3.2 21:20:34 10° SSW 21:24:21 85° W 21:28:12 10° N
Cosmos 1464 Rocket 4.1 21:18:41 10° S 21:24:36 57° E 21:30:40 10° NNE
ISS -3.9 21:21:40 10° W 21:25:01 81° S 21:28:15 11° E
SL-08 R/B 4.3 21:20:34 10° N 21:25:15 50° WNW 21:29:48 10° SW
Cosmos 1461 2.5 21:22:19 10° SW 21:26:01 88° NW 21:29:43 10° NE
Helios 1B rocket 4.2 21:24:31 10° E 21:26:38 15° ENE 21:28:45 10° NNE
BREEZE-M DEB (TANK) 1.5 21:24:38 10° WSW 21:27:20 42° S 21:28:12 25° ESE
CZ-4B R/B 3.4 21:23:15 14° SSE 21:27:25 85° WSW 21:32:20 10° NNW
Okean 1 3.8 21:25:54 19° SSE 21:27:59 35° E 21:31:19 10° NNE
Cosmos 1726 Rocket 4.2 21:25:49 17° SSE 21:28:18 34° E 21:31:59 10° NNE
COSMOS 2406 3.4 21:24:41 10° SW 21:30:27 77° WNW 21:36:14 10° NNE
Terra 4.1 21:28:25 10° SW 21:31:48 19° W 21:35:13 10° NW
Okean O Rocket 3.1 21:30:57 10° SSW 21:34:45 30° W 21:38:35 10° NNW
Cosmos 1536 4.1 21:31:56 10° NNE 21:35:00 24° ENE 21:36:59 16° ESE
Cosmos 1777 Rocket 4.2 21:34:07 10° NNW 21:39:20 68° WSW 21:43:21 17° S
Cosmos-2242 4.1 21:37:47 19° SE 21:39:42 27° E 21:43:11 10° NNE
Cosmos 1092 Rocket 4.5 21:34:56 10° N 21:40:53 48° ENE 21:45:21 18° SE
Cosmos 2333 Rocket 3.1 21:36:21 10° NW 21:41:42 43° WSW 21:46:30 13° S
Cosmos 1437 Rocket 3.5 21:38:24 10° SSW 21:41:51 48° WNW 21:45:22 10° N
Okean 1-7 Rocket 3.7 21:42:28 10° NNW 21:46:57 75° W 21:50:19 17° S
Cosmos 1833 4.4 21:44:12 11° S 21:49:21 50° ESE 21:54:47 10° NE
Cosmos 1503 Rocket 4.1 21:44:14 10° NNW 21:49:25 72° WSW 21:53:04 19° SSE
Cosmos 2360 Rocket 2.6 21:46:02 10° NW 21:51:36 58° WSW 21:55:44 18° S
CZ-2C R/B 2.5 21:52:45 24° SSW 21:54:06 49° W 21:56:49 10° NNW
Cosmos 1766 3.4 21:52:24 10° N 21:55:30 43° ENE 21:56:45 28° SE
Cosmos 2322 4.3 21:50:27 10° NNW 21:56:00 49° NE 22:00:18 16° ESE
Cosmos 372 Rocket 4.3 21:57:05 10° NNW 22:02:07 54° ENE 22:05:24 21° SE
Cosmos 2034 Rocket 4.0 21:58:36 16° S 22:03:45 73° E 22:10:04 10° NNE
Cosmos 2219 Rocket 2.3 21:58:43 10° NW 22:04:22 71° WSW 22:08:05 22° SSE
Cosmos 1354 Rocket 4.0 21:59:12 10° NNW 22:04:27 77° WSW 22:07:46 23° SSE
Cosmos 2221 4.3 22:03:18 15° ESE 22:04:35 17° E 22:07:17 10° NE
Cosmos 1271 Rocket 4.1 22:06:21 18° E 22:06:48 19° E 22:09:13 10° NE
Cosmos 1805 4.5 22:04:31 10° NNW 22:07:21 27° W 22:09:31 14° SW
Cosmos 1825 Rocket 4.1 22:06:40 10° NNW 22:10:54 51° W 22:13:51 19° SSW
USA 306 2.1 22:09:23 10° WNW 22:11:19 39° NW 22:11:19 39° NW
Cosmos 540 Rocket 3.4 22:07:44 16° SSW 22:11:51 69° ESE 22:16:59 10° NNE
Nadezhda 4 Rocket 4.4 22:09:07 10° NNW 22:15:05 57° W 22:20:00 16° SSW
Helios 1A 3.2 22:12:51 10° NNE 22:16:39 46° E 22:18:07 31° SSE
Cosmos 1953 Rocket 3.6 22:13:26 10° NNW 22:17:47 73° W 22:20:10 26° S
RESURS DK-1 2.7 22:14:46 10° NNW 22:18:41 53° NE 22:20:46 25° ESE
Aureole 1 Rocket 3.9 22:14:27 10° NNW 22:20:12 87° WSW 22:24:34 24° SSE
Cosmos 2322 Rocket 3.4 22:18:54 10° NW 22:23:54 33° WSW 22:27:37 16° SSW
Cosmos 1707 1.8 22:23:33 53° SSE 22:24:04 73° E 22:26:54 10° NNE
Cosmos 1634 Rocket 4.1 22:22:33 23° SSE 22:26:25 63° E 22:32:33 10° NNE
Cosmos 1937 Rocket 4.0 22:22:00 10° NNW 22:27:01 50° ENE 22:30:08 22° SE
TSX-5 3.1 22:25:47 10° NW 22:28:55 89° NNE 22:29:55 43° SE
SL-16 R/B 4.5 22:26:38 10° NNW 22:30:44 20° NNE 22:34:48 10° ENE
Geosat 4.1 22:27:50 10° NE 22:32:47 57° ESE 22:35:38 25° S
Cosmos 2058 Rocket 3.0 22:30:59 29° S 22:33:07 77° E 22:37:28 10° NNE
Cosmos 468 Rocket 4.1 22:30:13 25° S 22:33:17 61° ESE 22:38:28 10° NNE
Cosmos 1076 Rocket 4.5 22:30:31 10° NNW 22:34:30 39° W 22:36:55 20° SSW
Cosmos 2026 Rocket 4.3 22:31:05 10° NNW 22:37:25 67° W 22:41:40 22° S
Meteor 2-9 Rocket 4.4 22:33:05 10° N 22:38:26 60° ENE 22:41:25 27° SE
Cosmos 44 3.8 22:33:14 10° NW 22:38:30 55° SW 22:41:01 29° S
Cosmos 2237 Rocket 3.0 22:37:26 10° NNW 22:42:54 45° NE 22:47:09 16° ESE
CZ-2C R/B 4.3 22:39:09 11° ESE 22:43:01 24° ENE 22:47:08 10° N
Cosmos 2266 Rocket 4.5 22:41:06 10° N 22:46:56 48° ENE 22:50:26 23° SE
Cosmos 1980 4.3 22:41:41 10° NNW 22:47:13 50° NE 22:51:12 18° ESE
USA 234 4.2 22:43:18 10° ENE 22:48:29 25° SE 22:49:36 23° SE
Cosmos 1470 2.3 22:45:18 10° N 22:48:37 74° ENE 22:49:19 51° SSE
CZ-4C R/B 4.4 22:44:13 10° WNW 22:48:54 29° N 22:54:43 10° ENE
ATLAS 2AS CENTAUR R/B 4.4 22:44:25 10° NW 22:50:30 33° N 22:56:32 10° ENE
USA 290 4.5 22:51:14 10° WSW 22:53:51 23° NW 22:56:28 10° N
ARIANE 5 R/B 2.8 22:52:41 33° SE 22:54:36 67° ENE 22:59:03 10° N
Cosmos 1763 Rocket 4.2 22:51:09 10° SW 22:56:18 53° WNW 23:01:29 10° NNE
COSMOS 2428 2.7 22:50:54 10° NNW 22:56:38 81° WSW 22:59:34 30° SSE
ALOS 2 2.9 22:54:46 31° SE 22:56:40 58° ENE 23:01:00 10° N
Cosmos 2227 Rocket 4.2 22:55:49 12° ESE 22:57:17 13° E 22:59:40 10° ENE
Helios 1B rocket 2.3 22:58:18 42° SSW 22:59:13 57° WSW 23:02:41 10° NNW
ISS -3.1 22:58:29 10° W 23:01:11 38° SW 23:01:11 38° SW
Cosmos 1898 Rocket 3.5 22:57:00 10° NNW 23:02:11 73° WSW 23:04:33 33° S
CZ-2C R/B 4.4 23:01:54 10° NNE 23:07:01 31° E 23:09:26 23° SE
Meteor 1-11 Rocket 3.8 23:01:40 10° N 23:07:20 68° ENE 23:10:10 30° SSE
Cosmos 1536 3.9 23:06:57 10° NNW 23:10:17 32° W 23:11:30 25° SW
SAR-Lupe-2 3.7 23:10:57 44° ESE 23:11:38 55° ENE 23:14:54 10° N
Cosmos 1238 Rocket 4.3 23:14:04 22° ESE 23:15:12 25° E 23:18:49 10° NNE
PSLV R/B 4.0 23:11:50 10° NNE 23:16:01 47° E 23:17:16 36° SE
Cosmos-2242 4.2 23:14:02 18° SW 23:16:35 35° WNW 23:20:23 10° N
NOSS 8 (H) 3.9 23:16:29 10° NW 23:19:21 88° SW 23:19:32 78° SE
Alouette 2 Rocket 4.5 23:22:36 10° N 23:26:10 39° ENE 23:28:18 24° ESE
NOSS 0 Rocket 4.0 23:21:45 10° NW 23:27:51 65° WSW 23:30:49 31° S
Meteor 1-27 Rocket 4.2 23:25:50 29° SSE 23:28:24 49° E 23:33:54 10° NNE
Cosmos 841 Rocket 3.4 23:27:23 31° SSW 23:29:59 87° ESE 23:35:16 10° NNE
Cosmos 2297 Rocket 2.6 23:27:59 32° SSE 23:30:05 47° ESE 23:35:29 10° NE
Cosmos 1842 3.9 23:29:26 29° WSW 23:30:14 35° WNW 23:33:11 10° N
Cosmos 1975 3.2 23:29:10 10° NNW 23:32:42 45° W 23:33:29 38° SW
Cosmos 2142 Rocket 4.5 23:30:57 29° SSW 23:34:25 85° W 23:40:40 10° N
Cosmos 2180 Rocket 4.5 23:32:26 29° SSW 23:35:52 86° W 23:42:17 10° N
Spot 4 4.2 23:36:12 34° SSW 23:38:00 53° W 23:42:43 10° NNW
Cosmos 2322 4.5 23:34:51 10° NW 23:40:03 38° WSW 23:42:12 28° SSW
Cosmos 1271 Rocket 3.6 23:39:41 27° WSW 23:40:47 35° WNW 23:43:55 10° N
Cosmos 2221 2.7 23:39:35 35° SW 23:41:08 59° WNW 23:45:18 10° N
Cosmos 1812 Rocket 3.5 23:39:58 39° SSW 23:41:33 79° W 23:46:00 10° N
ACS3 Solar Sail 3.2 23:38:12 10° NE 23:42:59 24° E 23:46:10 16° SE
MetOp-A 3.8 23:42:38 36° SSE 23:44:39 84° ENE 23:49:17 10° NNW
Helios 1B 4.4 23:42:44 10° NNE 23:47:02 88° ESE 23:48:25 42° SSW
Cosmos 2219 Rocket 4.3 23:44:34 10° WNW 23:47:18 14° W 23:49:46 11° WSW
NOSS 8 (E) 4.2 23:47:06 10° NW 23:49:44 60° W 23:49:44 60° W
RESURS DK-1 3.9 23:52:44 10° WNW 23:55:43 21° WSW 23:55:58 20° WSW
